This is the latest recevied weather packets stored in our database for station/object DL2GFH-3. If no packets are shown the sender has not sent any weather packets the latest 10 day(s).
| Time | Temp. | Humidity | Pressure | Rain* | Wind** | Luminosity | Snow |
|---|---|---|---|---|---|---|---|
| 1777628191 | 26.11° C | 15% | 1024.5 hPa | - | - | - | - |
| 1777627286 | 26.67° C | 15% | 1024.4 hPa | - | - | - | - |
| 1777626380 | 26.67° C | 15% | 1024.5 hPa | - | - | - | - |
| 1777625475 | 26.67° C | 15% | 1024.4 hPa | - | - | - | - |
| 1777624569 | 27.22° C | 14% | 1024.5 hPa | - | - | - | - |
| 1777623664 | 27.22° C | 14% | 1024.4 hPa | - | - | - | - |
| 1777622759 | 27.22° C | 14% | 1024.3 hPa | - | - | - | - |
| 1777621853 | 27.22° C | 14% | 1024.3 hPa | - | - | - | - |
| 1777620948 | 26.67° C | 14% | 1024.2 hPa | - | - | - | - |
| 1777620042 | 25.56° C | 15% | 1024.2 hPa | - | - | - | - |
| 1777619137 | 24.44° C | 16% | 1024.3 hPa | - | - | - | - |
| 1777618231 | 25° C | 15% | 1024.2 hPa | - | - | - | - |
| 1777617326 | 23.33° C | 16% | 1024.3 hPa | - | - | - | - |
| 1777616421 | 23.89° C | 16% | 1024.1 hPa | - | - | - | - |
| 1777615530 | 23.33° C | 16% | 1024.1 hPa | - | - | - | - |
| 1777614610 | 22.78° C | 16% | 1024 hPa | - | - | - | - |
| 1777613704 | 22.78° C | 16% | 1024.1 hPa | - | - | - | - |
| 1777612799 | 22.78° C | 16% | 1024 hPa | - | - | - | - |
| 1777611894 | 22.78° C | 16% | 1023.9 hPa | - | - | - | - |
| 1777610988 | 22.22° C | 16% | 1023.8 hPa | - | - | - | - |
| 1777610083 | 22.78° C | 16% | 1023.7 hPa | - | - | - | - |
| 1777609177 | 22.22° C | 17% | 1023.6 hPa | - | - | - | - |
| 1777608272 | 19.44° C | 19% | 1023.8 hPa | - | - | - | - |
| 1777607367 | 18.89° C | 20% | 1023.7 hPa | - | - | - | - |
| 1777606475 | 17.22° C | 21% | 1023.8 hPa | - | - | - | - |
* Rain since midnight (hover to see other rain measurements)
** Current wind speed in m/s (hover to see current wind gust speed)